TimeMST,TemperatureF,Dew PointF,Humidity,Sea Level PressureIn,VisibilityMPH,Wind Direction,Wind SpeedMPH,Gust SpeedMPH,PrecipitationIn,Events,Conditions,WindDirDegrees,DateUTC
12:03 AM,24.8,23.0,93,30.03,0.5,South,4.6,-,N/A,Fog,Light Freezing Fog,190,2012-11-17 07:03:00
12:05 AM,24.8,23.0,93,30.03,0.5,SSW,3.5,-,N/A,Fog,Light Freezing Fog,200,2012-11-17 07:05:00
12:18 AM,24.8,24.8,100,30.03,1.0,Calm,Calm,-,N/A,,Overcast,0,2012-11-17 07:18:00
12:22 AM,24.8,23.0,93,30.03,3.0,Calm,Calm,-,N/A,,Overcast,0,2012-11-17 07:22:00
12:35 AM,24.8,24.8,100,30.03,5.0,Calm,Calm,-,N/A,,Overcast,0,2012-11-17 07:35:00
12:53 AM,26.1,25.0,96,30.12,1.8,Calm,Calm,-,N/A,,Overcast,0,2012-11-17 07:53:00
1:01 AM,26.6,24.8,93,30.03,2.5,Calm,Calm,-,N/A,,Overcast,0,2012-11-17 08:01:00
1:08 AM,26.6,23.0,86,30.02,3.0,ENE,5.8,-,N/A,,Overcast,70,2012-11-17 08:08:00
1:53 AM,26.1,24.1,92,30.12,6.0,Calm,Calm,-,N/A,,Mostly Cloudy,0,2012-11-17 08:53:00
2:53 AM,23.0,21.0,92,30.13,5.0,Calm,Calm,-,N/A,,Clear,0,2012-11-17 09:53:00
3:05 AM,21.2,19.4,93,30.03,1.8,Calm,Calm,-,N/A,,Clear,0,2012-11-17 10:05:00
3:07 AM,21.2,19.4,93,30.03,1.0,South,3.5,-,N/A,,Mist,180,2012-11-17 10:07:00
3:14 AM,19.4,17.6,93,30.03,0.2,South,4.6,-,N/A,Fog,Light Freezing Fog,170,2012-11-17 10:14:00
3:53 AM,18.0,16.0,92,30.14,0.2,South,3.5,-,N/A,Fog,Light Freezing Fog,170,2012-11-17 10:53:00
4:53 AM,19.4,17.6,93,30.01,0.2,Calm,Calm,-,N/A,Fog,Light Freezing Fog,0,2012-11-17 11:53:00
5:53 AM,16.0,14.0,92,30.13,0.2,Calm,Calm,-,N/A,Fog,Light Freezing Fog,0,2012-11-17 12:53:00
6:53 AM,15.1,14.0,95,30.14,0.2,Calm,Calm,-,N/A,Fog,Light Freezing Fog,0,2012-11-17 13:53:00
7:53 AM,17.1,14.0,88,30.14,0.2,Calm,Calm,-,N/A,Fog,Light Freezing Fog,0,2012-11-17 14:53:00
8:26 AM,17.6,14.0,86,30.01,2.0,Calm,Calm,-,N/A,,Overcast,0,2012-11-17 15:26:00
8:33 AM,17.6,15.8,93,30.01,3.0,East,3.5,-,N/A,,Overcast,90,2012-11-17 15:33:00
8:53 AM,19.0,16.0,88,30.15,6.0,Calm,Calm,-,N/A,,Mostly Cloudy,0,2012-11-17 15:53:00
9:53 AM,21.9,19.9,92,30.13,7.0,Calm,Calm,-,N/A,,Mostly Cloudy,0,2012-11-17 16:53:00
10:53 AM,28.0,25.0,88,30.09,6.0,Calm,Calm,-,N/A,,Clear,0,2012-11-17 17:53:00
11:53 AM,30.9,28.0,89,30.05,7.0,Calm,Calm,-,N/A,,Clear,0,2012-11-17 18:53:00
12:53 PM,34.0,30.0,85,30.00,6.0,Calm,Calm,-,N/A,,Clear,0,2012-11-17 19:53:00
1:53 PM,39.9,30.9,70,29.94,10.0,Calm,Calm,-,N/A,,Partly Cloudy,0,2012-11-17 20:53:00
2:53 PM,43.0,28.0,56,29.93,10.0,SSE,5.8,-,N/A,,Clear,150,2012-11-17 21:53:00
3:53 PM,42.1,30.0,62,29.94,10.0,South,8.1,-,N/A,,Partly Cloudy,190,2012-11-17 22:53:00
4:53 PM,39.9,30.0,68,29.92,10.0,South,10.4,-,N/A,,Partly Cloudy,170,2012-11-17 23:53:00
5:53 PM,39.0,30.0,70,29.92,10.0,South,9.2,-,N/A,,Clear,190,2012-11-18 00:53:00
6:53 PM,41.0,30.0,65,29.92,10.0,SSW,15.0,-,N/A,,Scattered Clouds,200,2012-11-18 01:53:00
7:53 PM,39.0,30.0,70,29.90,10.0,SE,5.8,-,N/A,,Clear,130,2012-11-18 02:53:00
8:53 PM,39.0,30.0,70,29.87,10.0,SE,4.6,-,N/A,,Mostly Cloudy,130,2012-11-18 03:53:00
9:53 PM,41.0,30.9,67,29.83,10.0,SE,6.9,19.6,N/A,,Partly Cloudy,140,2012-11-18 04:53:00
10:53 PM,42.1,30.9,65,29.79,10.0,South,12.7,-,N/A,,Partly Cloudy,180,2012-11-18 05:53:00
11:53 PM,42.8,30.2,61,29.74,10.0,South,16.1,29.9,N/A,,Clear,180,2012-11-18 06:53:00